This is the latest recevied weather packets stored in our database for station/object KF0FSA. If no packets are shown the sender has not sent any weather packets the latest 10 day(s).
| Time | Temp. | Humidity | Pressure | Rain* | Wind** | Luminosity | Snow |
|---|---|---|---|---|---|---|---|
| 1778011143 | 11.11° C | 32% | 959.4 hPa | 0 mm | - | 485 W/m² | - |
| 1778010840 | 11.67° C | 31% | 959.5 hPa | 0 mm | - | 492 W/m² | - |
| 1778010541 | 11.67° C | 32% | 959.2 hPa | 0 mm | - | 1003 W/m² | - |
| 1778010240 | 11.11° C | 31% | 959.1 hPa | 0 mm | - | 1053 W/m² | - |
| 1778009940 | 10.56° C | 32% | 959.2 hPa | 0 mm | - | 1002 W/m² | - |
| 1778009640 | 10.56° C | 34% | 959.5 hPa | 0 mm | - | 1024 W/m² | - |
| 1778009341 | 11.11° C | 33% | 959.6 hPa | 0 mm | - | 399 W/m² | - |
| 1778009040 | 11.11° C | 34% | 959.3 hPa | 0 mm | - | 809 W/m² | - |
| 1778008738 | 10.56° C | 33% | 959.4 hPa | 0 mm | - | 1002 W/m² | - |
| 1778008437 | 10° C | 36% | 959.6 hPa | 0 mm | - | 577 W/m² | - |
| 1778008137 | 10° C | 36% | 959.6 hPa | 0 mm | - | 640 W/m² | - |
| 1778007835 | 10.56° C | 36% | 959.6 hPa | 0 mm | - | 685 W/m² | - |
| 1778007535 | 10.56° C | 37% | 959.4 hPa | 0 mm | - | 1218 W/m² | - |
| 1778007235 | 10.56° C | 35% | 959.6 hPa | 0 mm | - | 606 W/m² | - |
| 1778006935 | 10° C | 36% | 959.2 hPa | 0 mm | - | 1290 W/m² | - |
| 1778006635 | 10° C | 36% | 959.7 hPa | 0 mm | - | 551 W/m² | - |
| 1778006335 | 9.44° C | 39% | 959.6 hPa | 0 mm | - | 999 W/m² | - |
| 1778006035 | 9.44° C | 39% | 959.8 hPa | 0 mm | - | 428 W/m² | - |
| 1778005735 | 9.44° C | 38% | 959.8 hPa | 0 mm | - | 371 W/m² | - |
| 1778005560 | 9.44° C | 38% | 959.8 hPa | 0 mm | - | 477 W/m² | - |
| 1778005135 | 9.44° C | 39% | 959.9 hPa | 0 mm | - | 410 W/m² | - |
| 1778004836 | 9.44° C | 38% | 959.9 hPa | 0 mm | - | 477 W/m² | - |
| 1778004536 | 9.44° C | 38% | 959.9 hPa | 0 mm | - | 425 W/m² | - |
| 1778004235 | 9.44° C | 39% | 959.8 hPa | 0 mm | - | 506 W/m² | - |
| 1778003933 | 10° C | 38% | 959.8 hPa | 0 mm | - | 477 W/m² | - |
* Rain latest hour (hover to see other rain measurements)
** Current wind speed in m/s (hover to see current wind gust speed)